Location: Gwatt
(46.7204°N, 7.6223°E)
Time: 06:35:05
(UTC+00:00)

S-56A Canister/Altair - Pass Details

Date: 22 January 2021
Orbit: 632 x 2501 km, 38.9° (Epoch: 08 March)

Event Time Altitude Azimuth Distance (km) Brightness Sun altitude
Rises 02:06:01 0° 217° (SW) 2,973 - -50.0°
Reaches altitude 10° 02:09:02 10° 196° (SSW) 2,005 - -49.5°
Maximum altitude 02:11:55 17° 155° (SSE) 1,605 - -49.1°
Drops below altitude 10° 02:14:54 10° 114° (ESE) 2,091 - -48.6°
Exits shadow 02:17:42 - 96° (E) 3,006 11.1 -48.2°
Sets 02:18:08 0° 94° (E) 3,165 11.2 -48.1°
